Regional Weather Roundup
Issued by NWS Albany, NY

Home | Current Version | Previous Version | Text Only | Print | Product List | Glossary On
Versions: 1 2 3 4 5 6 7 8 9 10 11 12 13 14 15 16 17 18 19 20 21 22 23 24 25 26 27 28 29 30 31 32 33 34 35 36 37 38 39 40 41 42 43 44 45 46 47 48 49 50
000
ASUS41 KALY 221210
RWRALY

NEW YORK STATE HOURLY WEATHER ROUNDUP
NATIONAL WEATHER SERVICE ALBANY NY
800 AM EDT TUE JUL 22 2014

NOTE: "FAIR" INDICATES FEW OR NO CLOUDS BELOW 12,000 FEET WITH NO
SIGNIFICANT WEATHER AND/OR NO OBSTRUCTIONS TO VISIBILITY.

NYZ032-033-038>043-046>054-057>066-NYZ062>081-221300-
EAST


CITY           SKY/WX    TMP DP  RH WIND       PRES   REMARKS
ALBANY         MOSUNNY   72  64  76 S7        30.16R
GLENS FALLS    SUNNY     70  65  84 S6        30.14S
POUGHKEEPSIE   SUNNY     72  65  78 CALM      30.16S
NEWBURGH       SUNNY     70  66  88 W8        30.19
MONTGOMERY       N/A     69  65  86 SW6       30.18R
WHITE PLAINS   SUNNY     71  65  81 W5        30.18S
ISLIP          MOSUNNY   74  62  66 W6        30.16S
NEW YORK CITY  MOSUNNY   76  63  64 CALM      30.17S
CENTRAL PARK   SUNNY     74  63  68 CALM      30.21R
$$

NYZ005>009-017-018-044>046-055-056-221300-
CENTRAL


CITY           SKY/WX    TMP DP  RH WIND       PRES   REMARKS
FULTON         SUNNY     71  68  90 S3        30.14R FOG
SYRACUSE       MOSUNNY   73  67  81 CALM      30.14S
ROME           CLOUDY    70  65  84 E3        30.16S
ELMIRA         SUNNY     73  68  84 W5        30.16S
BINGHAMTON     MOSUNNY   68  65  90 SW6       30.20R
MONTICELLO     PTSUNNY   64  64 100 CALM      30.23R
$$

NYZ026>034-041>043-221300-
NORTH


CITY           SKY/WX    TMP DP  RH WIND       PRES   REMARKS
WATERTOWN      SUNNY     71  63  75 CALM      30.13R
FORT DRUM      NOT AVBL
MASSENA        SUNNY     71  65  81 SW8       30.12R
SARANAC LAKE   MOSUNNY   64  63  96 SW6       30.16R FOG
PLATTSBURGH    SUNNY     71  64  78 CALM      30.10S
$$

NYZ001>004-010>016-019>021-221300-
WEST


CITY           SKY/WX    TMP DP  RH WIND       PRES   REMARKS
NIAGARA FALLS  SUNNY     67  64  90 CALM      30.13S
BUFFALO        SUNNY     68  61  78 S5        30.14S
DUNKIRK        SUNNY     68  62  81 CALM      30.14S
JAMESTOWN      CLOUDY    64  64 100 S7        30.19S
WELLSVILLE     CLOUDY    72  65  78 SW6       30.23R
ROCHESTER      SUNNY     68  66  93 SW5       30.14S
PENN YAN       SUNNY     71  68  90 S6        30.16S
$$

             KEY
       WCI = WIND CHILL INDEX
       VSB = VISIBILITY
       HX  = HEAT INDEX
$$



USA.gov is the U.S. government's official web portal to all federal, state and local government web resources and services.